ARABSAT-5C

Last updated on Thu Jul 03 2025 00:02:45 GMT+0000 (Coordinated Universal Time)

1 37810U 11049B 25183.57057479 .00000131 00000+0 00000+0 0 9990 2 37810 0.0493 19.8708 0004189 110.2600 16.1043 1.00272283 50535
UTC large
Height (km)
Speed (km/s)
/
Latitude / Longitude
Inclination (degrees)
Orbital Period (minutes)
Azimuth
Elevation
Range (km)
Doppler Factor

Next 0 passes for location: London (51.5072 / 0.1276)

Sorry there are no passes over London.